| time (UTC) | temp F | wind direction | speed MPH | gust MPH | rain 1hr in | rain 24hr in | rain mn in | humidity % | barometer mb |
| 20260905091511 | 79 | 187 | 0.0 | 1.0 | 0.00 | 0.00 | 0.00 | 87 | 1015.0 |
| 20260905090010 | 78 | 160 | 0.0 | 0.0 | 0.00 | 0.00 | 0.00 | 87 | 1015.1 |
| 20260905084506 | 78 | 159 | 0.0 | 0.0 | 0.00 | 0.00 | 0.00 | 88 | 1015.1 |
| 20260905083104 | 78 | 159 | 0.0 | 0.0 | 0.00 | 0.00 | 0.00 | 89 | 1015.2 |
| 20260905081559 | 79 | 159 | 0.0 | 0.0 | 0.00 | 0.00 | 0.00 | 89 | 1015.2 |
| 20260905080056 | 80 | 159 | 0.0 | 0.0 | 0.00 | 0.00 | 0.00 | 89 | 1015.4 |
| 20260905074558 | 80 | 159 | 0.0 | 0.0 | 0.00 | 0.00 | 0.00 | 89 | 1015.3 |
| 20260905073100 | 80 | 159 | 0.0 | 0.0 | 0.00 | 0.00 | 0.00 | 88 | 1015.3 |
| 20260905071547 | 81 | 158 | 0.0 | 0.0 | 0.00 | 0.00 | 0.00 | 88 | 1015.4 |
| 20260905070044 | 82 | 158 | 0.0 | 0.0 | 0.00 | 0.00 | 0.00 | 87 | 1015.4 |
| 20260905064541 | 82 | 168 | 1.0 | 3.0 | 0.00 | 0.00 | 0.00 | 87 | 1015.4 |
| 20260905063039 | 82 | 156 | 1.0 | 2.0 | 0.00 | 0.00 | 0.00 | 87 | 1015.3 |
| 20260905061535 | 82 | 171 | 0.0 | 2.0 | 0.00 | 0.00 | 0.00 | 87 | 1015.5 |
| 20260905060037 | 82 | 184 | 0.0 | 0.0 | 0.00 | 0.00 | 0.00 | 87 | 1015.6 |
| 20260905054540 | 83 | 184 | 0.0 | 0.0 | 0.00 | 0.00 | 0.00 | 85 | 1015.6 |
| 20260905053025 | 83 | 156 | 0.0 | 2.0 | 0.00 | 0.00 | 0.00 | 85 | 1015.6 |
| 20260905051520 | 83 | 207 | 0.0 | 0.0 | 0.00 | 0.00 | 0.00 | 86 | 1015.6 |
| 20260905050017 | 83 | 162 | 0.0 | 1.0 | 0.00 | 0.00 | 0.00 | 86 | 1015.4 |
| 20260905044518 | 82 | 162 | 0.0 | 0.0 | 0.00 | 0.00 | 0.00 | 86 | 1015.5 |
| 20260905043012 | 83 | 162 | 0.0 | 0.0 | 0.00 | 0.00 | 0.00 | 84 | 1015.6 |
| 20260905041510 | 84 | 156 | 0.0 | 2.0 | 0.00 | 0.00 | 0.00 | 83 | 1015.6 |
| 20260905040107 | 85 | 159 | 1.0 | 3.0 | 0.00 | 0.00 | 0.00 | 83 | 1015.6 |
| 20260905034507 | 85 | 151 | 1.0 | 3.0 | 0.00 | 0.00 | 0.00 | 83 | 1015.6 |
| 20260905033005 | 86 | 169 | 0.0 | 2.0 | 0.00 | 0.00 | 0.00 | 82 | 1015.5 |
| 20260905031506 | 87 | 158 | 1.0 | 3.0 | 0.00 | 0.00 | 0.00 | 80 | 1015.6 |
| 20260905030001 | 87 | 159 | 1.0 | 3.0 | 0.00 | 0.00 | 0.00 | 79 | 1015.5 |
| 20260905024622 | 87 | 164 | 0.0 | 2.0 | 0.00 | 0.00 | 0.00 | 78 | 1015.6 |
| 20260905023110 | 87 | 163 | 0.0 | 2.0 | 0.00 | 0.00 | 0.00 | 78 | 1015.5 |
| 20260905021600 | 86 | 244 | 1.0 | 5.0 | 0.00 | 0.00 | 0.00 | 79 | 1015.2 |
| 20260905020105 | 86 | 182 | 0.0 | 0.0 | 0.00 | 0.00 | 0.00 | 79 | 1015.1 |
| 20260905014557 | 84 | 185 | 0.0 | 2.0 | 0.00 | 0.00 | 0.00 | 81 | 1014.8 |
| 20260905013051 | 85 | 277 | 0.0 | 0.0 | 0.00 | 0.00 | 0.00 | 81 | 1014.6 |
| 20260905011549 | 85 | 277 | 0.0 | 0.0 | 0.00 | 0.00 | 0.00 | 81 | 1014.5 |
| 20260905010045 | 86 | 277 | 0.0 | 0.0 | 0.00 | 0.00 | 0.00 | 80 | 1014.3 |
| 20260905004544 | 87 | 277 | 0.0 | 0.0 | 0.00 | 0.00 | 0.00 | 79 | 1014.2 |
| 20260905003041 | 89 | 277 | 0.0 | 0.0 | 0.00 | 0.00 | 0.00 | 78 | 1014.2 |
| 20260905001540 | 90 | 277 | 0.0 | 0.0 | 0.00 | 0.00 | 0.00 | 76 | 1014.1 |
| 20260905000039 | 93 | 277 | 0.0 | 0.0 | 0.00 | 0.00 | 0.00 | 72 | 1014.2 |
| 20260904234537 | 95 | 277 | 0.0 | 1.0 | 0.00 | 0.00 | 0.00 | 69 | 1014.1 |
| 20260904233040 | 96 | 292 | 0.0 | 2.0 | 0.00 | 0.00 | 0.00 | 67 | 1014.1 |
| 20260904231536 | 96 | 19 | 0.0 | 2.0 | 0.00 | 0.00 | 0.00 | 66 | 1014.0 |
| 20260904230032 | 97 | 309 | 0.0 | 5.0 | 0.00 | 0.00 | 0.00 | 65 | 1014.0 |
| 20260904224529 | 98 | 163 | 1.0 | 6.0 | 0.00 | 0.00 | 0.00 | 64 | 1014.0 |
| 20260904223030 | 100 | 268 | 1.0 | 5.0 | 0.00 | 0.00 | 0.00 | 61 | 1014.1 |
| 20260904221524 | 101 | 249 | 2.0 | 4.0 | 0.00 | 0.00 | 0.00 | 60 | 1014.1 |
| 20260904220021 | 100 | 282 | 0.0 | 4.0 | 0.00 | 0.00 | 0.00 | 61 | 1014.3 |
| 20260904214532 | 100 | 357 | 3.0 | 8.0 | 0.00 | 0.00 | 0.00 | 61 | 1014.4 |
| 20260904213030 | 101 | 251 | 1.0 | 3.0 | 0.00 | 0.00 | 0.00 | 61 | 1014.5 |
| 20260904211518 | 101 | 321 | 0.0 | 3.0 | 0.00 | 0.00 | 0.00 | 60 | 1014.8 |
| 20260904210022 | 100 | 306 | 0.0 | 9.0 | 0.00 | 0.00 | 0.00 | 59 | 1015.0 |
| 20260904204514 | 101 | 186 | 1.0 | 6.0 | 0.00 | 0.00 | 0.00 | 58 | 1015.2 |
| 20260904203006 | 99 | 246 | 2.0 | 5.0 | 0.00 | 0.00 | 0.00 | 61 | 1015.4 |
| 20260904201505 | 99 | 141 | 2.0 | 6.0 | 0.00 | 0.00 | 0.00 | 60 | 1015.5 |
| 20260904200004 | 100 | 256 | 0.0 | 4.0 | 0.00 | 0.00 | 0.00 | 63 | 1015.7 |
| 20260904194608 | 98 | 178 | 1.0 | 6.0 | 0.00 | 0.00 | 0.00 | 64 | 1015.8 |
| 20260904193053 | 96 | 336 | 0.0 | 4.0 | 0.00 | 0.00 | 0.00 | 68 | 1016.1 |
| 20260904191551 | 97 | 21 | 2.0 | 7.0 | 0.00 | 0.00 | 0.00 | 65 | 1016.2 |
| 20260904190040 | 96 | 353 | 4.0 | 8.0 | 0.00 | 0.00 | 0.00 | 65 | 1016.4 |
| 20260904184534 | 97 | 6 | 4.0 | 8.0 | 0.00 | 0.00 | 0.00 | 65 | 1016.4 |
| 20260904183030 | 96 | 306 | 0.0 | 7.0 | 0.00 | 0.00 | 0.00 | 66 | 1016.4 |
| 20260904181522 | 96 | 353 | 2.0 | 9.0 | 0.00 | 0.00 | 0.00 | 67 | 1016.5 |
| 20260904180015 | 95 | 347 | 1.0 | 7.0 | 0.00 | 0.00 | 0.00 | 70 | 1016.7 |
| 20260904174516 | 95 | 242 | 0.0 | 8.0 | 0.00 | 0.00 | 0.00 | 68 | 1016.8 |
| 20260904173005 | 95 | 282 | 1.0 | 8.0 | 0.00 | 0.00 | 0.00 | 69 | 1017.0 |
| 20260904171609 | 95 | 348 | 3.0 | 8.0 | 0.00 | 0.00 | 0.00 | 69 | 1017.2 |
| 20260904170052 | 94 | 301 | 3.0 | 7.0 | 0.00 | 0.00 | 0.00 | 71 | 1017.2 |
| 20260904164553 | 94 | 298 | 4.0 | 7.0 | 0.00 | 0.00 | 0.00 | 71 | 1017.4 |
| 20260904163041 | 93 | 345 | 7.0 | 11.0 | 0.00 | 0.00 | 0.00 | 71 | 1017.4 |
| 20260904161539 | 92 | 320 | 2.0 | 8.0 | 0.00 | 0.00 | 0.00 | 73 | 1017.4 |
| 20260904160028 | 92 | 277 | 3.0 | 8.0 | 0.00 | 0.00 | 0.00 | 74 | 1017.5 |
| 20260904154522 | 91 | 348 | 2.0 | 8.0 | 0.00 | 0.00 | 0.00 | 76 | 1017.5 |
| 20260904153020 | 90 | 350 | 3.0 | 10.0 | 0.00 | 0.00 | 0.00 | 76 | 1017.5 |
| 20260904151512 | 89 | 357 | 3.0 | 8.0 | 0.00 | 0.00 | 0.00 | 77 | 1017.5 |
| 20260904150024 | 89 | 357 | 1.0 | 7.0 | 0.00 | 0.00 | 0.00 | 78 | 1017.5 |
| 20260904144505 | 88 | 15 | 1.0 | 6.0 | 0.00 | 0.00 | 0.00 | 78 | 1017.5 |
| 20260904143002 | 88 | 260 | 2.0 | 4.0 | 0.00 | 0.00 | 0.00 | 78 | 1017.5 |
| 20260904141609 | 87 | 303 | 1.0 | 6.0 | 0.00 | 0.00 | 0.00 | 79 | 1017.3 |
| 20260904140055 | 87 | 315 | 2.0 | 6.0 | 0.00 | 0.00 | 0.00 | 79 | 1017.2 |
| 20260904134557 | 86 | 242 | 1.0 | 4.0 | 0.00 | 0.00 | 0.00 | 79 | 1017.3 |
| 20260904133046 | 84 | 216 | 2.0 | 4.0 | 0.00 | 0.00 | 0.00 | 80 | 1017.2 |
| 20260904131643 | 84 | 230 | 0.0 | 4.0 | 0.00 | 0.00 | 0.00 | 80 | 1017.3 |
| 20260904130040 | 83 | 251 | 0.0 | 5.0 | 0.00 | 0.00 | 0.00 | 80 | 1017.3 |
| 20260904124538 | 81 | 216 | 0.0 | 1.0 | 0.00 | 0.00 | 0.00 | 81 | 1017.2 |
| 20260904123036 | 78 | 153 | 0.0 | 1.0 | 0.00 | 0.00 | 0.00 | 84 | 1017.2 |
| 20260904121533 | 0 | 0.0 | 0.0 | 0.00 | 0.00 | 0.00 | 1017.2 | ||
| 20260904120027 | 0 | 0.0 | 0.0 | 0.00 | 0.00 | 0.00 | 1017.2 | ||
| 20260904114531 | 0 | 0.0 | 0.0 | 0.00 | 0.00 | 0.00 | 1016.9 | ||
| 20260904113017 | 0 | 0.0 | 0.0 | 0.00 | 0.00 | 0.00 | 1016.9 | ||
| 20260904111522 | 0 | 0.0 | 0.0 | 0.00 | 0.00 | 0.00 | 1016.6 | ||
| 20260904110007 | 0 | 0.0 | 0.0 | 0.00 | 0.00 | 0.00 | 1016.6 | ||
| 20260904104601 | 0 | 0.0 | 0.0 | 0.00 | 0.00 | 0.00 | 1016.5 | ||
| 20260904103056 | 0 | 0.0 | 0.0 | 0.00 | 0.00 | 0.00 | 1016.4 | ||
| 20260904101551 | 0 | 0.0 | 0.0 | 0.00 | 0.00 | 0.00 | 1016.3 | ||
| 20260904100050 | 78 | 152 | 0.0 | 0.0 | 0.00 | 0.00 | 0.00 | 88 | 1016.1 |
| 20260904094545 | 78 | 155 | 0.0 | 0.0 | 0.00 | 0.00 | 0.00 | 88 | 1015.8 |
| 20260904093042 | 78 | 162 | 0.0 | 0.0 | 0.00 | 0.00 | 0.00 | 89 | 1015.9 |